Flag for Pakistan Weather past 2 weeks in Karachi, Sindh, Pakistan

Now
86 °F

Passing clouds.


Feels Like: 97 °F
Forecast: 86 / 94 °F
Wind: 14 mph from West

Location: Karachi Airport

Current Time: Jul 6, 2015 at 11:05:10 PM

Latest Report: Jul 6, 2015 at 10:25 PM


Visibility: 4 mi

Pressure: 29.42 "Hg

Humidity: 75%

Dew point: 77 °F

Location of KarachiLocation

Historic Weather in Karachi — Graph

°F

Karachi temperature yesterday

Maximum temperature yesterday: 91 °F (at 12:25 PM)
Minimum temperature yesterday: 86 °F (at 12:25 AM)
Average temperature yesterday: 88 °F

Past Weeks' High & Low Weather Summary

 TemperatureHumidityPressure
High106 °F (Jun 22, 1:25 PM)79% (Jul 6, 4:25 AM)29.71 "Hg (Jul 6, 4:25 AM)
Low86 °F (Jun 27, 9:25 PM)27% (Jun 23, 5:25 PM)29.30 "Hg (Jun 22, 3:55 PM)
Average91 °F60%29.51 "Hg
* Reported Jun 21 9:30 PM — Jul 6 9:55 PM, Karachi, Weather by CustomWeather, © 2015

Note: Actual official high and low records may vary slightly from our data, if they occured in-between our weather recording intervals... More about our weather records

Advertising

Karachi weather history for previous 24 hours

 ConditionsComfort  
Time TempWeatherWind HumidityBarometerVisibility
9:55 PM
Mon, Jul 6
86 °FPassing clouds.16 mph75%29.45 "Hg4 mi
9:25 PM86 °FPassing clouds.14 mph75%29.45 "Hg4 mi
8:55 PM86 °FPassing clouds.15 mph75%29.42 "Hg4 mi
8:25 PM86 °FPassing clouds.10 mph75%29.42 "Hg4 mi
7:55 PM88 °FPassing clouds.16 mph70%29.42 "Hg4 mi
7:25 PM88 °FPassing clouds.17 mph70%29.39 "Hg4 mi
6:55 PM88 °FPartly sunny.18 mph70%29.39 "Hg4 mi
6:25 PMN/APartly sunny.20 mphN/AN/A4 mi
5:55 PM88 °FPartly sunny.21 mph70%29.39 "Hg4 mi
5:25 PM88 °FPartly sunny.18 mph70%29.39 "Hg4 mi
4:55 PM90 °FPartly sunny.20 mph67%29.39 "Hg4 mi
4:25 PM90 °FPartly sunny.20 mph67%29.39 "Hg4 mi
3:55 PM91 °FPartly sunny.21 mph63%29.39 "Hg4 mi
3:25 PM91 °FPartly sunny.20 mph63%29.39 "Hg4 mi
3:00 PM91 °FPartly sunny.17 mph63%29.39 "Hg4 mi
2:25 PM91 °FPartly sunny.20 mph63%29.42 "Hg4 mi
1:55 PM93 °FPartly sunny.18 mph59%29.42 "Hg4 mi
1:25 PM91 °FPartly sunny.16 mph63%29.42 "Hg4 mi
12:55 PM91 °FPartly sunny.20 mph63%29.45 "Hg4 mi
12:25 PM91 °FPartly sunny.18 mph63%29.45 "Hg4 mi
11:55 AM91 °FPartly sunny.17 mph67%29.45 "Hg4 mi
11:25 AM91 °FPartly sunny.18 mph63%29.45 "Hg4 mi
10:55 AM91 °FPartly sunny.16 mph63%29.45 "Hg4 mi
10:25 AM91 °FPartly sunny.18 mph63%29.47 "Hg4 mi
9:55 AM90 °FPartly sunny.21 mph67%29.47 "Hg4 mi
9:25 AM88 °FPartly sunny.17 mph75%29.47 "Hg4 mi
8:55 AM88 °FPartly sunny.14 mph75%29.47 "Hg4 mi
7:55 AM88 °FPartly sunny.15 mph75%29.45 "Hg4 mi
7:25 AM88 °FPartly sunny.16 mph75%29.45 "Hg4 mi
6:55 AM88 °FPartly sunny.15 mph75%29.45 "Hg4 mi
6:25 AM86 °FPartly sunny.16 mph79%29.45 "Hg4 mi
5:55 AM86 °FPartly sunny.14 mph79%29.45 "Hg4 mi
5:25 AM86 °FPassing clouds.16 mph79%29.45 "Hg4 mi
4:55 AM86 °FPassing clouds.12 mph79%29.45 "Hg4 mi
4:25 AM86 °FPassing clouds.12 mph79%29.45 "Hg4 mi
3:55 AM86 °FPassing clouds.14 mph75%29.42 "Hg4 mi
3:25 AM86 °FPassing clouds.16 mph75%29.45 "Hg4 mi
2:55 AM86 °FPassing clouds.14 mph75%29.45 "Hg4 mi
2:25 AM86 °FPassing clouds.14 mph75%29.45 "Hg4 mi
1:55 AM86 °FPassing clouds.12 mph75%29.45 "Hg4 mi
1:25 AM86 °FPassing clouds.13 mph75%29.45 "Hg4 mi
12:55 AM86 °FPassing clouds.14 mph75%29.47 "Hg4 mi
12:25 AM86 °FPassing clouds.16 mph75%29.47 "Hg4 mi
11:55 PM
Sun, Jul 5
86 °FPassing clouds.18 mph75%29.47 "Hg4 mi
11:25 PM88 °FPartly cloudy.14 mph70%29.50 "Hg4 mi
Weather by CustomWeather, © 2015

See weather overviewHow to use our weather pages